Regional Weather Roundup
Issued by NWS

Home | Current Version | Previous Version | Graphics & Text | Print | Product List | Glossary On
Versions: 1 2 3 4 5 6 7 8 9 10 11 12 13 14 15 16 17 18 19 20 21 22 23 24 25 26 27 28 29 30 31 32 33 34 35 36 37 38 39 40 41 42 43 44 45 46 47 48 49 50
000
ASUS43 KFSD 160802
RWRSD

WEATHER ROUNDUP FOR SOUTH DAKOTA
NATIONAL WEATHER SERVICE SIOUX FALLS SD
200 AM CST SAT DEC 16 2017

NOTE: "FAIR" INDICATES FEW OR NO CLOUDS BELOW 12,000 FEET WITH NO
SIGNIFICANT WEATHER AND/OR OBSTRUCTIONS TO VISIBILITY.


SDZ001>005-009-010-012>017-160900-
NORTHWEST AND NORTH CENTRAL SOUTH DAKOTA

CITY           SKY/WX    TMP DP  RH WIND       PRES   REMARKS
BUFFALO          N/A     40  24  53 NW23      29.64S
FAITH            N/A     36  21  54 NW13      29.68R
MOBRIDGE       CLOUDY    34  24  67 N7        29.62S WCI  28
$$

SDZ012>016-024>037-041>051-057-063-072>074-160900-
SOUTHWEST AND SOUTH CENTRAL SOUTH DAKOTA

CITY           SKY/WX    TMP DP  RH WIND       PRES   REMARKS
RAPID CTY ARPT PTCLDY    39  16  39 N13       29.71R
PIERRE         CLOUDY    35  24  64 W10       29.66R WCI  27
CUSTER         CLOUDY    28  12  51 N6        29.73S WCI  22
ELLSWORTH AFB  CLOUDY    33  15  47 N5        29.71R WCI  29
PHILIP         CLOUDY    36  24  62 W10       29.70R
PINE RIDGE     CLOUDY    36  20  52 W5        29.71F
SPEARFISH      FAIR      39  16  38 NW6       29.75R
WINNER         FAIR      40  24  53 W6        29.68R
$$

SDZ004>011-016>023-039-040-160900-
NORTHEAST SOUTH DAKOTA

CITY           SKY/WX    TMP DP  RH WIND       PRES   REMARKS
ABERDEEN       CLOUDY    35  27  72 NW10      29.62R WCI  27
WATERTOWN      CLOUDY    31  27  85 W12       29.59R WCI  22
BROOKINGS      CLEAR     33  26  75 W3        29.61R
SISSETON         N/A     33  29  85 NW7       29.59R WCI  27
$$

SDZ017-020-022-023-036>040-048>070-160900-
SOUTHEAST SOUTH DAKOTA

CITY           SKY/WX    TMP DP  RH WIND       PRES   REMARKS
SIOUX FALLS    CLOUDY    28  25  88 SW5       29.63R WCI  23
HURON          CLOUDY    34  26  72 NW9       29.63R WCI  27
CHAMBERLAIN    CLOUDY    39  26  59 NW13      29.66S
MITCHELL       CLOUDY    39  27  62 W9        29.66R
YANKTON        CLOUDY    41  25  53 W10       29.65R
$$

ABBREVIATIONS USED IN REMARKS
   TC - TEMPERATURE IN CELSIUS
  WCI - WIND CHILL INDEX
   HX - HEAT INDEX
  VSB - VISIBILITY





USA.gov is the U.S. government's official web portal to all federal, state and local government web resources and services.